{"data":{"norad_id":69353,"intl_designator":"2026-123A","name":"STARLINK-37651","alt_names":[],"object_type":"PAYLOAD","status":"ACTIVE","operator":null,"country":"US","launch_date":"2026-06-04","launch_site_code":"AFETR","launch_vehicle":null,"mission":null,"orbit_class":"UNKNOWN","rcs_meters":null,"size_class":null,"mass_kg":null,"dimensions":null,"purposes":["comms"],"wikipedia_slug":null,"has_3d_model":false,"image_url":null,"decayed_at":null,"tle_current":{"epoch":"2026-09-20T01:11:29.200128Z","epoch_age_seconds":67931,"freshness":"FRESH","line1":"1 69353U 26123A   26263.04964352  .00009905  00000+0  30383-3 0  9994","line2":"2 69353  53.1592 143.6354 0001267  89.2964 270.8184 15.34406548 16808","mean_motion":15.34406548,"eccentricity":0.0001267,"inclination_deg":53.1592,"raan_deg":143.6354,"arg_perigee_deg":89.2964,"mean_anomaly_deg":270.8184,"bstar":0.00030383,"rev_number":1680,"period_min":93.847357590917,"perigee_km":461.81704624778,"apogee_km":463.55051023299,"semimajor_km":6840.8207782404,"source":"CELESTRAK","updated_at":"2026-09-20T09:00:44.163977Z"}}}